Regional Weather Roundup
Issued by NWS Huntsville, AL

Home | Current Version | Previous Version | Text Only | Print | Product List | Glossary On
Versions: 1 2 3 4 5 6 7 8 9 10 11 12 13 14 15 16 17 18 19 20 21 22 23 24 25 26 27 28 29 30 31 32 33 34 35 36 37 38 39 40 41 42 43 44 45 46 47 48 49 50
000
ASUS44 KHUN 240624
RWRHUN

WEATHER ROUNDUP FOR THE TENNESSEE VALLEY
NATIONAL WEATHER SERVICE HUNTSVILLE AL
100 AM CDT THU APR 24 2014

ALZ001>004-240700-
NORTHWEST ALABAMA

CITY           SKY/WX    TMP DP  RH WIND       PRES   REMARKS
SHOALS AIRPORT FAIR      48  41  76 CALM      29.98S
6HR MIN TEMP:  48; 6HR MAX TEMP:  71;

SHOALS TVA RES   N/A     50 N/A N/A MISG        N/A
$$

ALZ005>007-016-240700-
NORTH CENTRAL ALABAMA

CITY           SKY/WX    TMP DP  RH WIND       PRES   REMARKS
DECATUR AP     FAIR      49  41  74 CALM      29.97F
6HR MIN TEMP:  49; 6HR MAX TEMP:  70;

HUNTSVILLE AP  FAIR      53  40  61 CALM      29.96F
6HR MIN TEMP:  52; 6HR MAX TEMP:  70;

HUN NWS/UAH      N/A     55  35  46 N1          N/A
MERIDIANVILLE  FAIR      45  37  76 CALM      29.97S
VINEMONT AP    FAIR      45  41  86 CALM      29.98F
$$

ALZ008>010-240700-
NORTHEAST ALABAMA

CITY           SKY/WX    TMP DP  RH WIND       PRES   REMARKS
ALBERTVILLE    FAIR      50  45  81 CALM      29.96S
CROSSVILLE       N/A     46 N/A N/A CALM        N/A
FORT PAYNE     FAIR      43  37  81 CALM      29.96F
SCOTTSBORO AP  FAIR      46  41  81 CALM      29.98S
SCOTTSBORO HCN   N/A     45 N/A N/A MISG        N/A
VALLEY HEAD      N/A     45 N/A N/A MISG        N/A
$$

TNZ076-096-097-240700-
SOUTHEASTERN MIDDLE TENNESSEE

CITY           SKY/WX    TMP DP  RH WIND       PRES   REMARKS
FAYETTEVILLE   FAIR      49  34  56 NE6       29.97F
TULLAHOMA      CLEAR     52  34  50 NE3       29.98S
WINCHESTER     CLEAR     43  39  87 CALM      29.98F
$$

...SURROUNDING SITES...

CITY           SKY/WX    TMP DP  RH WIND       PRES   REMARKS
ATLANTA        FAIR      54  38  54 W5        29.95S
ANNISTON       FAIR      51  47  86 E5        29.96S
BIRMINGHAM     FAIR      52  46  80 CALM      29.98S
CHATTANOOGA    FAIR      49  43  80 N3        29.98F
CORINTH        FAIR      48  45  87 CALM      29.95F
DALTON         FAIR      48  41  76 CALM      29.96S
GADSDEN        FAIR      46  41  81 CALM      29.96S
GOLDEN TRNGL   FAIR      54  45  71 CALM      29.96F
HALEYVILLE     FAIR      45  44  96 CALM      30.00R
JACKSON TN     FAIR      55  37  50 CALM      29.96S
LEWISBURG      FAIR      41  38  89 CALM      29.98F
MEMPHIS        FAIR      61  39  44 E3        29.94R
MURFREESBORO   FAIR      52  34  50 NE3       29.98F
NASHVILLE      FAIR      50  36  58 CALM      30.00S
OXFORD MS      FAIR      50  45  81 CALM      29.96R
ROME           FAIR      45  43  93 CALM      29.96S
SAVANNAH       FAIR      45  44  96 CALM      29.97R
TUPELO         FAIR      53  46  77 CALM      29.95R
TUSCALOOSA     FAIR      53  50  89 CALM      29.95R
$$

...GULF COAST WEATHER...

CITY           SKY/WX    TMP DP  RH WIND       PRES   REMARKS
GULFPORT       FAIR      70  66  87 CALM      29.91F
PASCAGOULA     FOG       61  60  97 CALM      29.92S VSB 3/4
MOBILE         CLOUDY    66  65  96 CALM      29.93F FOG
GULF SHORES    MOCLDY    59  58  99 CALM      29.92F FOG
PENSACOLA      MOCLDY    64  64 100 CALM      29.92F FOG
DESTIN         FAIR      70  66  87 VRB3      29.93F
PANAMA CITY    FAIR      67  67  98 W3        29.94F
APPALACHICOLA  FAIR      66  63  90 CALM      29.94F FOG
$$




USA.gov is the U.S. government's official web portal to all federal, state and local government web resources and services.